Weather History for KFNB - October, 2012

Change the Weather History Date:

Wednesday, October 3, 2012

  Actual Average Record
Temperature  
Mean Temperature 60 °F -  
Max Temperature 80 °F 74 °F 93 °F (1954)
Min Temperature 39 °F 48 °F 28 °F (1987)
Degree Days  
Heating Degree Days 6    
Growing Degree Days 10 (Base 50)    
Moisture  
Dew Point 40 °F    
Average Humidity 54    
Maximum Humidity 93    
Minimum Humidity 21    
Precipitation  
Precipitation 0.00 in - - ()
Sea Level Pressure  
Sea Level Pressure 29.89 in    
Wind  
Wind Speed 4 mph (South)    
Max Wind Speed 18 mph    
Max Gust Speed 30 mph    
Visibility 10 miles    
Events      
Averages and records for this station are not official NWS values.
T = Trace of Precipitation, MM = Missing Value Source: NWS Daily Summary

Daily Weather History Graph

Daily Weather History Graph

Search for Another Location

Airport or City:

Trip Planner

Search our weather history database for the weather conditions in past years. The results will help you decide how hot, cold, wet, or windy it might be!

Date:

Astronomy

Oct. 03, 2012 Rise Set
Actual Time 7:21 AM CDT 7:00 PM CDT
Civil Twilight 6:54 AM CDT 7:27 PM CDT
Nautical Twilight 6:22 AM CDT 7:58 PM CDT
Astronomical Twilight 5:51 AM CDT 8:30 PM CDT
Moon 8:53 PM CDT (10/3) 10:45 AM CDT (10/3)
Length of Visible Light 12h 33m
Length of Day
11h 39m
Waning Gibbous, 88% of the Moon is Illuminated
Oct 3
Waning Gibbous
Oct 8
Last Quarter
Oct 15
New
Oct 21
First Quarter
Oct 29
Full

Hourly Weather History & Observations

Time (CDT) Temp. Windchill Dew Point Humidity Pressure Visibility Wind Dir Wind Speed Gust Speed Precip Events Conditions
12:53 AM 46.0 °F - 41.0 °F 83% 29.89 in 10.0 mi Calm Calm - N/A   Clear
1:53 AM 43.0 °F - 39.9 °F 89% 29.90 in 10.0 mi Calm Calm - N/A   Clear
2:53 AM 45.0 °F - 39.9 °F 82% 29.91 in 10.0 mi Calm Calm - N/A   Clear
3:53 AM 45.0 °F - 39.9 °F 82% 29.90 in 10.0 mi Calm Calm - N/A   Clear
4:53 AM 41.0 °F - 37.9 °F 89% 29.91 in 10.0 mi Calm Calm - N/A   Clear
5:53 AM 39.9 °F - 37.0 °F 89% 29.92 in 10.0 mi Calm Calm - N/A   Clear
6:53 AM 39.0 °F - 36.0 °F 89% 29.93 in 10.0 mi Calm Calm - N/A   Clear
7:53 AM 39.9 °F 37.8 °F 37.9 °F 93% 29.94 in 5.0 mi ESE 3.5 mph - N/A   Clear
8:53 AM 50.0 °F - 42.1 °F 74% 29.94 in 10.0 mi Calm Calm - N/A   Clear
9:53 AM 60.1 °F - 42.1 °F 51% 29.94 in 10.0 mi South 4.6 mph - N/A   Clear
10:53 AM 71.1 °F - 42.1 °F 35% 29.91 in 10.0 mi South 10.4 mph - N/A   Clear
11:53 AM 75.0 °F - 42.1 °F 31% 29.90 in 10.0 mi South 13.8 mph 18.4 mph N/A   Clear
12:53 PM 77.0 °F - 39.9 °F 26% 29.88 in 10.0 mi South 16.1 mph 21.9 mph N/A   Clear
1:53 PM 78.1 °F - 37.0 °F 23% 29.86 in 10.0 mi South 17.3 mph 29.9 mph N/A   Clear
2:53 PM 80.1 °F - 39.0 °F 23% 29.84 in 10.0 mi South 11.5 mph 23.0 mph N/A   Clear
3:53 PM 79.0 °F - 36.0 °F 21% 29.83 in 10.0 mi South 18.4 mph 24.2 mph N/A   Clear
4:53 PM 79.0 °F - 37.9 °F 23% 29.83 in 10.0 mi SSW 13.8 mph 21.9 mph N/A   Clear
5:53 PM 77.0 °F - 37.0 °F 24% 29.83 in 10.0 mi South 11.5 mph 20.7 mph N/A   Clear
6:53 PM 73.0 °F - 37.9 °F 28% 29.85 in 10.0 mi South 9.2 mph - N/A   Clear
7:53 PM 64.9 °F - 39.0 °F 39% 29.86 in 9.0 mi SSE 8.1 mph - N/A   Clear
8:53 PM 61.0 °F - 39.9 °F 46% 29.88 in 10.0 mi SSE 8.1 mph - N/A   Clear
9:53 PM 59.0 °F - 41.0 °F 51% 29.89 in 10.0 mi SSE 6.9 mph - N/A   Clear
10:53 PM 59.0 °F - 44.1 °F 58% 29.90 in 10.0 mi SSE 5.8 mph - N/A   Clear
11:53 PM 62.1 °F - 45.0 °F 53% 29.91 in 10.0 mi South 6.9 mph - N/A   Clear